Theta_e
336 336 336 336 336 336 336 337 336 336 336 336 336 335 335 334 334 334 333 334 333 334 334 334 334 333 333 333 333 333 333 333 332 332 332 332 332 333 334 334 333 332 332 334 333 332 333 332 332 332 332 332 332 332 331 331 331 331 331 330 330 330 330
335 335 335 335 335 336 336 336 336 336 336 336 335 335 335 334 334 334 333 334 333 333 334 334 334 334 333 333 333 333 333 333 332 332 331 332 333 333 333 334 333 332 332 334 333 333 332 331 331 331 332 332 332 331 331 331 331 330 331 330 330 330 330
335 335 334 334 335 335 335 335 336 336 336 335 335 334 334 334 334 333 333 333 333 332 333 333 333 333 333 332 333 332 332 333 332 332 331 332 333 333 332 332 332 332 332 333 333 333 332 331 331 331 332 333 332 331 330 330 331 331 330 330 330 330 329
334 334 334 334 334 334 334 334 335 336 336 336 335 334 333 333 333 333 333 332 333 332 332 333 333 333 333 333 332 332 331 331 332 331 331 331 332 332 330 330 331 332 333 334 333 332 332 332 331 331 332 332 331 331 330 330 331 330 330 330 330 330 329
333 333 333 333 333 334 334 334 334 334 334 334 334 334 334 333 332 332 332 332 332 332 332 332 332 332 333 333 332 332 332 331 331 331 331 331 331 331 331 331 332 332 333 333 332 331 331 331 331 332 332 331 330 331 330 331 331 330 330 330 330 330 330
331 332 332 333 333 334 334 334 334 333 333 334 334 334 334 333 332 332 332 332 331 331 330 331 332 332 332 333 332 332 332 332 332 332 332 332 331 331 332 332 331 331 331 331 330 330 331 331 331 331 331 330 330 330 330 331 330 330 330 330 330 329 329
331 331 331 332 332 334 334 334 333 333 333 333 333 334 333 332 332 332 332 332 331 330 330 331 332 331 332 332 332 332 332 332 333 332 332 332 331 332 333 332 330 330 330 330 330 331 332 332 331 331 331 331 331 330 330 330 329 330 330 329 329 328 329
331 331 331 331 332 333 333 333 333 333 333 333 333 333 333 332 332 332 332 331 331 330 331 331 331 331 332 332 332 332 332 332 332 332 331 331 331 332 332 331 331 331 330 330 331 331 331 331 331 331 331 331 330 330 330 329 329 330 329 329 329 328 328
330 331 331 331 332 332 333 333 333 333 333 333 333 333 333 332 332 332 332 331 331 331 331 331 331 331 332 332 332 332 332 332 332 331 330 330 331 331 331 331 332 331 331 331 331 332 331 331 331 331 331 330 330 330 329 329 330 329 329 329 329 328 327
330 331 331 331 332 332 332 332 333 333 332 332 333 332 332 332 331 331 332 331 331 331 332 332 332 332 332 332 331 331 332 332 332 331 331 331 332 332 332 333 332 331 331 332 331 332 332 331 331 331 331 330 330 329 329 330 330 329 329 329 328 328 327
330 331 331 331 332 333 333 333 332 332 332 332 333 332 330 330 331 332 332 332 332 332 333 333 332 333 332 332 332 331 332 332 331 331 332 332 332 332 332 332 332 331 332 332 332 332 332 332 332 331 330 329 329 329 328 329 330 329 329 329 328 327 327
330 330 330 331 332 332 332 332 332 332 332 332 332 331 330 330 331 332 332 333 333 333 333 333 333 333 333 333 332 332 332 332 331 331 331 332 332 331 332 333 332 331 331 332 332 332 333 333 332 331 331 330 330 330 329 329 329 329 329 329 328 327 327
330 330 330 330 331 331 331 331 331 331 332 332 332 331 330 330 331 332 332 333 333 332 333 333 332 332 333 333 333 333 333 332 332 331 331 331 331 331 332 331 330 331 332 332 332 332 333 333 333 331 330 330 330 330 329 329 330 329 329 329 328 327 327
330 330 330 330 330 330 331 331 331 331 332 332 331 331 331 331 331 331 332 332 332 332 332 333 333 332 333 333 333 333 333 333 332 331 330 331 332 331 331 330 330 331 333 332 332 332 332 333 332 331 330 330 330 331 330 329 329 330 330 329 328 327 326
329 330 330 330 330 330 330 330 330 330 331 331 331 331 332 332 331 331 332 332 332 332 332 332 333 333 333 333 334 333 332 332 331 331 332 332 332 332 331 331 331 332 332 332 332 332 331 331 331 330 330 329 329 331 331 328 328 329 329 328 327 326 326
328 328 329 330 329 330 330 331 330 330 331 331 331 332 332 332 331 331 331 332 333 332 332 333 333 333 333 334 334 333 332 331 331 332 333 333 333 332 332 331 331 332 332 332 332 331 330 330 329 329 330 330 329 329 330 329 327 326 325 325 325 324 324
327 328 329 330 330 330 331 331 330 331 331 331 332 332 331 331 331 331 331 331 332 332 332 333 332 332 332 333 333 332 330 330 330 331 333 333 333 333 333 332 332 332 332 332 332 331 330 330 329 329 329 329 330 329 329 330 328 325 324 324 324 323 324
327 327 328 329 329 330 330 330 330 331 331 331 331 331 331 331 332 331 330 330 330 331 331 331 331 331 331 330 329 328 328 328 329 329 332 333 333 333 333 332 332 332 332 332 332 331 330 331 330 329 329 328 329 330 330 330 328 326 325 324 325 324 324
326 327 327 328 329 330 330 330 330 330 330 330 331 331 331 331 331 331 330 329 329 330 331 331 331 331 330 329 329 328 327 328 329 329 331 332 332 332 333 332 332 332 332 332 333 332 330 330 330 329 329 328 328 330 330 330 329 328 326 325 325 325 325
326 326 327 328 328 328 329 329 330 330 330 331 331 331 331 330 330 331 330 329 329 329 329 330 331 331 330 329 328 328 328 329 329 328 329 331 332 332 333 332 332 332 331 331 331 331 331 331 330 330 330 330 328 329 330 330 329 328 327 326 325 326 326
326 326 326 327 327 328 327 328 329 329 330 330 330 331 331 330 329 329 328 327 327 328 329 329 330 330 328 327 327 327 328 328 328 327 328 329 332 332 332 332 332 331 331 331 330 330 330 331 331 330 331 331 330 330 330 329 328 328 327 326 326 326 326
325 325 325 326 327 327 326 326 327 328 328 328 329 329 329 329 328 327 326 326 326 328 329 329 329 327 327 326 326 327 327 327 326 327 327 328 330 332 332 332 332 331 330 330 330 329 330 330 330 330 330 330 330 330 329 328 328 327 326 326 326 326 326
324 324 324 324 325 325 325 325 326 326 326 326 326 327 327 326 326 325 325 324 325 327 327 327 326 325 326 325 325 326 326 325 325 325 325 326 328 330 331 330 330 329 328 328 327 327 326 326 327 328 328 328 329 329 328 327 327 326 325 325 325 325 324
321 322 323 323 323 324 324 323 324 324 323 323 324 324 324 323 323 324 324 324 324 325 325 325 325 324 325 325 325 325 325 324 324 324 325 326 327 328 328 327 327 326 325 323 321 321 321 320 321 322 322 324 327 328 327 326 325 324 324 323 323 323 323
317 318 319 320 320 321 321 321 321 320 320 321 322 322 321 322 322 322 322 322 323 323 324 325 325 325 325 324 323 324 324 323 323 324 325 325 326 327 327 326 326 324 321 319 318 318 318 318 318 319 319 321 323 324 324 325 325 325 324 323 323 323 323
314 314 315 315 316 316 316 317 318 318 317 318 319 319 318 320 321 320 320 319 320 321 323 324 324 323 322 320 319 321 323 323 324 325 325 326 326 327 326 326 325 322 318 318 319 318 318 318 318 318 318 318 318 319 319 320 321 322 323 324 324 324 324
312 311 312 312 312 312 312 313 314 315 316 316 316 317 317 317 318 318 317 317 318 319 320 321 320 319 318 318 318 321 324 325 326 326 327 326 326 326 325 324 323 322 322 322 321 319 318 319 320 320 321 321 320 319 318 317 317 319 322 324 324 325 325
310 309 310 310 310 310 310 310 310 312 314 314 314 316 317 316 316 317 317 317 317 317 318 318 317 317 318 318 320 324 327 327 328 327 326 326 326 325 325 325 324 324 324 323 323 322 322 323 324 324 324 324 322 320 319 319 319 320 322 324 325 324 323
309 308 309 309 309 309 308 308 308 309 311 312 313 315 317 316 315 316 317 317 316 317 317 318 318 318 319 320 322 326 327 326 325 325 323 323 323 323 324 325 324 322 320 320 322 324 324 324 324 324 324 323 321 320 320 320 320 321 321 322 322 322 321
308 308 307 308 308 308 307 307 307 308 308 309 310 312 314 314 313 314 316 315 314 315 317 318 318 319 320 321 323 323 323 322 321 319 318 319 319 319 320 321 322 322 320 320 321 322 323 323 323 323 323 322 321 320 319 320 320 320 320 320 320 320 320
308 307 307 306 307 307 307 306 306 306 306 306 306 308 310 312 312 313 313 313 312 313 315 317 318 318 319 319 320 319 318 317 315 314 314 315 316 317 317 319 320 321 320 320 319 320 321 323 324 323 322 321 320 319 318 318 319 319 319 319 318 318 318
308 307 306 306 306 306 306 306 306 305 305 304 304 305 308 309 311 311 311 311 311 311 312 313 314 315 316 316 316 316 315 315 314 314 314 314 315 316 317 317 317 318 318 318 319 319 319 320 322 322 321 320 319 318 317 317 317 317 317 316 316 316 317
307 307 306 305 306 306 305 305 305 304 304 303 303 303 305 307 308 308 308 309 310 310 310 311 312 313 313 313 314 313 313 313 314 313 313 313 313 314 314 314 314 314 315 315 316 317 317 318 320 320 319 319 318 317 316 316 316 316 315 315 315 315 315
306 305 304 305 305 306 306 306 305 304 303 303 302 302 302 303 305 306 305 307 308 307 308 310 311 313 313 314 314 313 312 311 312 312 312 311 312 313 312 312 311 311 311 312 312 314 314 315 317 317 317 317 316 315 314 314 314 314 314 314 314 313 313
304 304 304 304 304 304 304 305 305 305 304 303 302 301 301 301 302 302 302 304 305 304 304 307 309 310 311 312 312 313 313 312 312 312 312 310 310 310 309 309 308 307 307 308 308 309 310 310 311 312 311 310 310 310 311 312 312 312 312 311 311 311 311
303 303 303 302 302 302 303 303 303 304 303 302 302 302 301 301 301 301 300 301 302 301 300 302 305 307 307 309 309 309 310 311 310 311 311 308 306 305 305 305 304 303 304 304 305 305 305 305 305 305 305 305 306 307 308 308 309 309 309 309 308 308 308
302 301 301 300 300 300 300 300 300 300 300 300 300 301 301 301 300 300 299 298 299 299 299 299 301 302 303 304 304 305 306 308 308 309 309 306 304 303 302 303 303 303 303 303 303 303 302 301 301 301 301 302 303 304 305 305 305 306 306 306 306 306 306
Wind_Speed
11 10 9 9 9 9 10 10 10 11 11 12 13 13 15 15 16 18 18 19 20 21 21 21 23 23 22 21 21 22 22 21 20 18 17 16 15 16 15 12 8 6 6 6 6 5 5 6 7 8 9 8 8 8 8 8 8 8 8 7 6 6 6
10 10 10 10 9 9 10 11 11 11 11 12 13 13 15 16 18 18 18 19 20 22 21 21 22 21 21 21 21 22 21 19 20 19 18 17 16 15 14 13 12 10 8 6 5 5 4 5 6 7 9 9 8 8 8 8 8 8 8 8 7 7 6
10 10 10 11 10 10 11 11 11 11 11 11 11 12 14 16 17 18 18 19 20 21 21 20 20 20 21 20 20 22 22 19 19 20 19 16 15 16 14 13 14 13 10 8 6 6 5 4 5 7 10 11 9 8 9 9 9 9 9 8 7 7 6
9 10 11 12 11 11 12 11 10 10 10 10 10 11 13 15 17 18 18 18 18 20 21 20 20 20 21 19 19 20 21 20 19 19 19 17 16 16 15 15 16 13 10 9 8 8 7 4 4 6 9 11 10 9 11 10 9 9 9 8 8 7 6
9 11 11 12 12 11 12 11 11 12 12 10 9 9 12 15 17 18 18 18 18 19 20 20 20 21 21 19 19 18 17 18 19 17 18 20 19 18 16 16 15 11 9 7 6 7 8 7 6 5 8 10 8 9 10 10 8 8 9 8 8 7 7
11 12 12 13 13 12 12 12 12 13 13 11 9 8 10 13 16 18 19 19 19 20 21 20 19 20 20 19 18 17 15 15 16 17 18 20 21 19 15 15 14 13 12 9 7 8 7 7 7 6 7 9 8 8 10 10 9 9 9 8 7 7 7
12 12 14 14 13 13 13 13 12 12 12 11 10 9 9 11 14 17 19 19 19 19 20 20 18 18 19 18 17 15 14 13 14 17 18 19 19 18 14 15 16 16 16 13 10 9 7 8 8 7 7 7 7 8 9 10 10 9 9 9 8 8 7
13 14 14 14 14 15 15 15 13 12 12 11 11 9 8 10 13 16 18 18 18 18 18 19 19 18 18 17 16 15 15 14 15 17 18 17 18 18 16 15 15 15 14 13 10 8 8 9 8 8 8 6 5 6 7 8 9 9 9 9 8 8 8
14 15 15 15 16 16 16 15 14 12 11 11 11 9 8 10 12 14 16 17 19 20 19 20 19 18 18 17 16 15 15 15 14 15 17 18 18 17 15 14 14 14 12 10 10 9 8 8 8 9 9 8 6 5 5 6 7 8 9 9 9 8 8
13 15 17 17 16 15 15 15 14 13 11 11 11 10 10 11 11 13 15 16 18 19 19 19 18 18 18 18 17 16 16 15 13 14 16 16 15 14 14 13 13 14 12 10 10 9 8 8 9 9 9 9 8 6 6 6 6 8 10 9 8 9 9
13 15 16 15 14 15 15 15 15 13 12 11 11 10 12 13 12 12 13 15 17 18 18 17 18 18 17 16 16 17 18 17 16 17 17 15 15 15 15 13 14 15 13 12 10 9 9 9 9 9 9 9 8 7 6 5 4 6 10 9 8 9 10
12 14 15 14 14 16 16 15 14 13 12 11 11 9 10 13 14 13 13 14 16 17 17 17 18 18 16 15 16 17 17 17 18 18 17 17 17 16 14 13 15 14 12 12 11 9 10 10 9 9 9 8 8 7 6 3 4 4 7 10 8 8 10
11 13 13 12 13 15 15 14 13 12 11 10 9 8 7 10 12 12 13 14 16 17 16 17 17 17 17 16 17 16 15 17 18 17 16 17 17 16 14 15 15 12 10 10 10 10 10 9 9 9 9 9 8 6 7 4 5 5 7 9 9 9 9
11 11 11 10 11 12 11 12 12 11 11 10 9 8 6 6 8 10 13 14 15 16 16 16 16 16 17 16 15 15 14 15 17 16 15 15 15 14 14 15 14 11 10 10 10 10 10 9 9 10 9 10 9 8 8 6 7 8 7 8 9 9 10
11 11 10 8 8 8 8 8 9 10 10 10 9 7 7 6 6 8 12 12 12 14 15 16 16 17 16 14 13 15 15 15 15 14 13 13 13 12 12 13 12 11 10 10 10 10 10 10 10 11 11 11 10 10 10 7 9 10 9 9 9 9 9
11 11 10 7 6 6 6 7 7 8 9 10 9 8 9 8 6 8 12 13 14 13 13 14 15 14 15 14 14 14 16 16 15 14 13 13 13 13 12 12 11 11 10 10 10 10 10 11 11 12 12 11 10 12 10 7 8 11 11 10 10 9 9
10 11 10 7 6 6 6 7 6 7 9 9 9 9 11 10 9 12 13 14 15 14 12 13 13 13 14 15 15 14 14 15 14 14 13 13 13 13 12 12 11 10 10 10 10 10 10 11 12 11 12 11 10 12 11 7 7 9 11 10 9 8 9
9 10 10 8 6 6 6 7 6 7 8 8 8 9 10 11 13 15 15 13 14 16 15 13 13 13 14 15 14 13 12 12 12 12 11 11 12 11 11 11 11 11 11 10 10 11 11 11 12 11 11 12 12 11 10 9 8 8 9 9 9 7 7
10 9 9 9 8 6 6 6 6 6 6 7 7 8 8 9 11 14 14 15 15 15 13 12 11 12 13 12 11 11 10 9 10 10 10 10 10 10 11 11 11 11 11 11 11 11 11 11 11 10 9 10 12 12 11 9 8 8 8 8 9 8 7
11 10 9 9 9 8 6 6 5 4 5 6 6 6 6 8 8 9 10 13 14 13 11 11 11 10 11 10 9 9 9 9 10 10 9 9 9 9 10 10 11 11 11 11 11 11 11 10 9 9 8 7 9 11 10 9 9 9 8 8 8 8 8
11 11 10 9 8 7 7 5 4 4 5 5 5 4 4 5 6 6 8 9 11 12 11 10 9 9 9 9 8 8 9 10 11 10 9 9 9 9 9 9 10 11 10 10 10 10 10 10 8 9 9 8 8 10 10 9 9 9 9 8 8 8 8
12 12 11 10 8 7 7 5 3 3 4 3 3 4 4 4 4 7 12 11 8 8 9 8 8 9 9 8 9 9 10 11 11 10 10 10 9 9 9 9 10 11 11 10 11 11 11 10 9 8 9 9 8 9 9 9 9 9 9 9 8 8 7
13 12 12 11 9 8 8 6 4 3 1 0 2 5 6 5 3 4 9 12 8 7 9 9 9 10 9 9 10 10 11 11 10 10 10 10 10 9 9 10 11 11 10 10 11 11 11 12 10 9 9 9 8 8 9 9 9 9 9 9 8 7 7
15 14 13 11 10 10 9 7 5 4 3 2 3 5 7 7 7 4 4 7 6 8 9 9 9 11 11 10 10 10 10 10 10 10 10 9 10 9 9 10 11 10 9 10 11 11 11 12 11 10 11 12 11 9 8 7 7 7 8 8 7 7 7
17 16 14 13 12 12 11 8 7 7 6 4 5 6 8 9 10 8 5 5 6 7 8 9 9 10 11 10 10 10 9 9 9 10 10 10 10 10 10 11 10 10 11 12 13 14 14 13 13 12 12 13 12 10 8 6 5 4 4 5 5 5 5
18 17 16 14 13 14 13 11 9 9 9 8 8 8 10 11 11 9 6 6 6 6 8 10 10 10 9 8 9 9 8 8 9 9 9 9 9 10 12 13 13 14 16 15 15 16 16 14 13 12 11 10 9 8 7 6 5 4 3 2 4 3 1
18 18 17 15 15 16 16 15 13 11 10 11 13 13 13 14 13 11 9 8 6 7 8 10 10 9 7 6 7 7 7 7 9 9 8 8 9 10 11 13 15 16 15 13 13 14 14 13 12 11 10 9 9 7 7 6 6 5 4 2 2 4 4
17 17 17 16 16 16 15 16 15 14 14 14 16 16 16 15 14 13 12 11 9 9 8 8 8 6 6 7 7 7 6 7 8 9 10 10 10 9 9 9 12 14 12 11 12 12 11 10 10 11 10 9 8 8 7 7 6 6 5 4 5 6 6
17 17 16 16 16 16 16 15 15 16 16 16 17 18 17 16 16 14 13 12 12 12 11 8 6 5 6 8 8 7 8 9 9 10 12 13 11 11 10 9 10 12 12 13 14 14 12 10 9 10 10 9 8 8 8 8 7 6 6 6 6 6 6
17 16 16 17 17 16 15 15 14 14 16 17 18 19 19 18 18 17 15 15 15 15 13 11 8 7 7 9 8 8 9 11 10 10 12 13 12 12 13 13 12 10 10 12 14 14 13 11 8 9 10 9 9 8 8 9 9 7 6 6 6 6 5
18 17 16 16 16 16 16 15 13 13 14 16 19 21 22 22 21 21 19 17 17 18 17 14 11 9 7 7 8 9 9 10 11 11 11 12 12 11 12 13 13 11 11 12 12 11 12 10 7 8 10 10 9 8 8 9 9 8 7 5 5 5 4
19 19 18 16 15 15 15 15 14 14 15 17 18 21 24 25 25 24 22 20 19 20 19 17 15 14 11 9 10 12 12 13 15 16 15 14 15 15 13 12 11 11 10 9 8 8 8 6 5 6 8 9 10 9 7 8 8 7 6 6 6 6 5
20 21 20 19 20 20 18 16 16 16 17 18 20 24 26 27 28 26 25 23 23 22 20 18 17 17 15 14 13 12 12 13 14 16 16 14 13 14 13 10 9 9 8 6 6 6 6 6 6 7 6 7 9 9 7 8 9 8 6 7 8 7 6
20 22 22 22 25 26 25 23 22 21 19 18 19 23 25 27 29 28 27 25 25 23 21 19 17 16 14 13 12 10 10 11 10 10 12 12 10 11 11 10 9 9 8 6 5 4 5 6 7 8 8 8 10 11 10 9 10 10 9 8 8 7 7
22 26 28 29 28 28 27 26 26 25 24 22 22 23 25 26 27 27 27 26 25 25 23 21 19 18 16 14 12 11 11 11 9 8 11 12 12 11 11 10 10 10 8 7 6 5 5 5 6 9 9 9 11 13 12 10 10 9 9 8 7 6 6
21 24 28 31 33 32 30 30 29 28 28 27 24 23 25 28 28 28 27 25 24 24 24 23 21 20 19 17 15 13 13 11 9 9 12 14 14 13 12 12 11 11 9 8 8 8 8 9 10 12 13 12 12 12 11 9 7 7 7 7 6 6 5
22 24 26 28 29 29 28 29 29 28 29 28 24 20 19 21 23 24 26 25 23 22 22 22 22 21 20 19 17 16 15 14 11 10 11 13 13 12 12 13 13 12 11 10 10 10 11 12 15 16 15 14 12 10 8 7 6 6 6 6 6 6 6
Wind_Direction
261 264 261 257 254 252 253 250 248 251 251 249 247 246 244 239 235 233 228 222 216 211 206 201 200 201 202 202 203 204 204 206 204 202 204 204 206 210 214 218 216 220 225 209 213 216 177 167 186 193 192 193 191 194 200 199 198 197 190 190 193 196 196
263 266 265 261 255 247 247 248 248 247 246 247 247 246 246 243 242 239 231 225 218 212 209 203 199 198 200 200 201 203 202 203 206 206 208 210 212 209 204 207 212 208 198 196 214 223 209 176 174 186 185 184 194 197 194 195 197 197 191 189 193 193 192
269 264 261 263 261 255 254 253 250 248 244 246 248 247 248 244 241 236 228 224 220 213 211 206 199 197 200 200 200 202 201 200 203 207 212 214 216 217 209 204 209 203 189 188 193 197 211 207 180 180 181 183 190 186 187 191 189 191 190 185 188 193 193
275 273 269 269 269 265 264 261 257 258 256 250 248 249 249 244 238 233 228 226 220 212 210 208 202 196 198 201 200 202 204 206 208 210 215 217 219 224 218 210 211 204 191 191 191 187 190 199 188 172 179 186 183 178 183 187 183 183 186 186 188 191 189
270 270 267 267 269 268 266 263 259 267 270 257 245 244 247 246 240 232 228 228 222 213 208 204 201 197 198 201 200 201 203 208 211 210 215 219 221 224 221 217 216 204 199 204 199 196 188 185 188 170 176 184 175 172 174 176 180 182 185 187 186 188 189
263 260 255 254 256 255 254 251 251 263 270 260 245 239 241 246 244 233 225 224 223 221 215 207 201 198 199 200 199 199 198 202 206 206 214 219 219 221 220 219 216 203 203 206 198 204 192 179 189 177 170 175 167 164 167 176 184 181 186 188 184 190 192
257 253 250 248 246 244 242 240 243 253 259 257 250 245 243 246 246 234 224 220 220 218 213 207 200 193 197 200 197 195 194 198 203 206 214 217 218 223 221 216 211 202 207 210 197 194 187 183 192 177 160 165 168 164 168 184 186 181 186 185 184 188 188
260 253 247 241 239 239 239 239 241 244 245 247 249 250 251 250 246 235 224 217 214 206 198 199 198 191 194 200 197 196 200 205 208 209 213 217 221 226 222 215 209 202 208 211 196 188 192 190 187 177 166 162 166 167 175 188 191 191 184 176 183 184 179
265 259 252 243 237 235 236 239 242 240 234 235 241 243 242 241 242 236 223 211 206 201 198 200 198 193 194 196 197 200 205 211 213 209 210 214 219 222 217 211 208 204 203 201 194 194 197 192 183 182 181 178 175 174 182 189 196 197 183 175 180 179 179
268 262 257 252 244 238 236 237 238 232 222 222 228 230 227 220 219 225 218 204 200 202 202 198 191 188 190 192 197 201 204 208 209 205 204 206 208 211 212 209 206 206 200 193 196 196 192 193 189 187 192 196 193 188 187 186 193 191 183 185 179 168 179
278 270 266 262 254 246 240 236 234 224 212 211 215 224 226 209 194 203 209 201 200 203 200 193 185 183 185 189 195 200 202 200 199 201 202 200 201 202 206 209 209 208 196 187 192 192 189 192 191 192 198 203 208 219 212 180 171 182 178 186 181 163 173
291 281 277 274 266 258 247 240 237 224 211 210 212 217 223 206 189 189 199 201 201 199 195 191 186 182 182 188 190 190 194 194 192 198 199 196 198 197 196 201 208 209 194 184 188 187 189 192 191 196 199 199 211 236 236 172 132 178 178 175 170 159 166
302 291 282 276 271 266 255 247 242 227 214 213 211 207 212 208 191 183 191 201 201 196 191 191 191 186 183 188 187 182 187 190 188 193 195 191 192 193 191 194 201 204 193 186 188 186 191 193 193 200 198 198 204 215 225 198 145 159 166 162 160 153 157
309 303 291 280 272 267 259 250 239 224 217 213 211 204 195 202 195 182 191 203 203 197 191 189 190 190 187 188 185 176 179 186 186 191 195 189 187 189 189 190 194 195 189 188 188 188 193 191 193 200 197 199 198 191 205 200 143 140 145 150 156 152 154
309 308 300 291 280 268 263 255 235 221 218 213 209 198 180 188 204 198 201 209 209 203 198 193 190 189 186 183 179 175 177 184 186 192 196 190 186 186 186 188 190 187 187 191 190 191 193 191 194 198 198 202 195 183 198 192 148 147 150 148 153 151 156
308 308 304 303 297 278 270 262 238 221 217 211 201 188 178 179 198 212 216 219 218 210 202 199 194 188 183 177 173 175 180 186 189 191 192 188 183 182 181 184 185 184 187 190 190 192 192 193 200 200 197 202 188 171 188 200 161 154 153 152 157 155 157
314 312 309 309 310 295 282 270 248 226 217 206 192 178 171 170 188 208 213 214 219 216 206 202 195 186 181 175 171 175 179 183 188 189 187 183 179 177 177 181 182 183 187 188 189 193 193 195 205 205 194 192 183 168 173 187 171 158 155 157 163 159 157
326 320 317 319 319 305 289 278 260 234 219 208 192 180 174 177 192 203 198 191 204 209 202 199 191 181 178 174 173 176 177 180 186 188 184 179 176 173 173 178 181 182 187 189 189 192 194 196 202 207 196 183 177 171 169 174 172 165 164 162 162 164 165
341 335 331 332 331 320 302 292 276 243 221 213 202 190 185 186 194 199 189 180 190 198 193 190 187 181 177 175 175 175 175 179 182 183 182 175 172 173 171 176 181 183 187 190 189 189 190 192 199 205 199 183 174 167 165 172 172 169 175 172 165 172 179
352 350 346 345 342 337 330 319 303 270 233 218 212 205 201 198 194 189 179 176 180 179 180 187 187 182 181 178 180 179 175 177 176 174 174 168 166 170 171 174 178 180 187 188 186 187 184 186 196 197 190 188 179 165 165 176 175 174 185 187 180 183 186
357 357 356 355 349 343 340 337 316 276 246 231 224 216 203 194 185 168 156 167 175 168 173 188 182 181 189 185 182 181 176 175 172 167 167 165 165 167 167 172 175 177 185 186 180 181 181 180 187 186 179 181 178 169 172 181 183 186 193 194 194 192 188
360 359 1 0 355 350 352 354 338 283 256 248 217 190 177 163 174 178 164 164 175 166 162 175 180 185 194 187 179 178 175 173 169 165 167 167 165 163 158 161 170 176 184 184 176 177 180 177 174 173 174 175 175 177 182 185 190 197 200 200 201 196 194
6 6 9 7 0 359 5 8 359 342 333 311 179 186 189 168 165 206 177 166 182 193 173 176 189 191 189 183 179 176 174 174 172 170 172 171 167 161 155 164 176 179 182 183 181 182 187 184 180 178 176 175 177 183 188 192 196 200 202 205 204 199 204
11 14 17 16 13 12 18 27 25 29 63 103 161 178 184 169 154 164 169 160 187 210 195 190 194 186 180 179 178 176 176 177 175 175 177 176 170 160 153 162 173 175 177 178 174 172 172 171 171 173 170 167 167 168 174 183 189 196 209 213 204 205 217
15 17 20 23 25 25 28 37 43 47 70 112 156 157 154 159 162 163 162 170 194 203 190 186 184 178 179 182 183 183 182 179 179 180 179 178 172 162 152 148 145 148 155 154 148 146 144 142 143 146 147 151 155 157 158 157 157 173 209 224 211 211 224
18 19 25 29 36 41 42 45 50 56 76 108 129 128 124 133 152 161 152 156 173 173 170 174 175 173 178 186 187 187 184 180 180 179 177 174 170 166 158 146 137 139 142 138 136 139 139 135 133 132 131 134 137 140 145 146 144 144 158 216 210 194 192
22 23 27 31 40 49 52 53 59 67 84 103 110 111 110 112 123 131 123 118 128 138 149 161 166 168 174 177 175 174 171 170 167 163 161 158 155 156 153 144 139 138 134 131 134 137 135 132 128 121 115 113 114 117 128 137 140 133 122 126 157 137 107
27 27 28 31 38 45 50 52 57 68 84 94 99 105 106 101 103 110 108 101 102 107 119 138 150 160 169 162 150 138 132 137 138 133 127 123 121 123 125 129 135 134 132 137 142 139 136 135 130 124 116 112 123 139 146 146 145 140 130 123 126 129 129
32 33 34 36 39 41 44 49 52 61 75 83 88 97 102 96 91 96 101 98 94 94 99 108 117 128 144 146 136 119 111 114 113 111 114 114 117 121 118 116 126 133 143 156 154 146 142 141 136 133 125 119 132 147 147 147 150 153 155 156 153 153 158
36 38 39 41 42 41 41 44 47 51 61 67 70 78 87 88 85 87 93 92 86 86 90 94 100 114 128 127 116 105 112 121 119 115 121 132 141 141 132 127 125 125 144 163 162 152 147 146 147 146 137 128 133 136 136 143 149 152 159 166 168 168 168
39 40 42 45 47 47 46 47 47 47 54 59 63 70 77 80 80 80 83 84 82 82 84 88 96 107 116 113 101 92 100 114 110 98 102 116 120 115 115 122 128 135 150 161 162 158 154 149 152 157 149 142 144 143 140 145 148 149 151 153 151 151 149
47 48 49 50 50 49 49 51 52 53 57 60 63 70 74 77 78 77 77 79 80 80 81 86 94 97 97 96 94 87 86 92 94 91 92 95 97 100 102 104 113 129 141 143 144 153 158 154 154 160 157 154 154 153 147 144 142 137 132 132 134 136 138
56 57 56 59 63 62 58 56 57 60 60 60 64 69 72 75 77 76 73 75 76 74 74 79 86 91 92 89 87 86 87 87 90 94 96 91 88 96 102 99 98 107 112 114 129 156 174 175 162 153 157 161 156 150 145 145 144 138 132 136 137 133 130
61 65 66 68 70 70 68 67 67 66 64 60 61 65 67 72 75 74 71 71 71 69 68 72 77 81 84 83 80 88 98 101 103 106 106 106 103 101 103 103 100 96 94 101 123 152 171 178 172 161 159 159 151 144 140 139 139 136 131 130 129 121 117
65 69 72 73 72 71 72 73 72 71 69 66 65 65 66 68 69 69 68 68 68 65 63 67 73 77 81 83 84 92 103 108 118 123 117 115 116 113 112 112 104 92 88 93 104 115 125 140 151 144 133 130 132 133 131 128 129 130 128 127 128 126 127
64 66 70 72 73 71 71 73 73 74 73 71 68 64 65 67 66 65 63 63 64 64 62 63 67 70 75 80 83 88 96 100 108 122 122 118 114 111 113 112 104 94 88 87 93 101 106 110 113 112 110 113 121 122 117 116 122 128 128 129 127 122 121
63 67 70 72 72 70 68 68 68 67 68 68 66 59 56 61 64 65 65 62 60 60 60 61 64 65 67 73 76 78 83 85 88 103 114 113 109 108 107 104 99 96 95 96 100 105 109 110 109 108 108 110 110 106 102 104 111 116 118 122 121 114 108